User: anonymous   Login
Location: Unspecified
(0.0000°N, 0.0000°E)
Time: 15:48:54
(UTC+00:00)
Language:

Vela 6A - Orbit

View from above orbital plane
View from above orbital plane
View from above satellite
View from above satellite

Ground track
Ground track

The orbit data is extracted from the following two-line orbital elements,

1 04366U 70027A   14353.26626480  .00001164  00000-0  00000+0 0   289
2 04366 050.9734 243.2596 7043363 083.0818 000.2202 00.21442616 28714
Epoch (UTC): 19 December 2014 06:23:25
Eccentricity: 0.7043363
inclination: 50.9734°
perigee height: 28483 km
apogee height: 194577 km
right ascension of ascending node: 243.2596°
argument of perigee: 83.0818°
revolutions per day: 0.21442616
mean anomaly at epoch: 0.2202°
orbit number at epoch: 2871

The dashed part of the orbit path shows where the satellite is in the earth's shadow,  

DLR